La Porte, IN

6:43 PM CDT on May 27, 2017 (GMT -0500)
La Porte Municipal

Weather History for KPPO - February, 2013

Change the Weather History Date:

Saturday, February 2, 2013

  Actual Average (KSBN) Record (KSBN)
Temperature  
Mean Temperature 19 °F -  
Max Temperature 24 °F 32 °F 50 °F (1920)
Min Temperature 13 °F 16 °F -17 °F (1951)
Degree Days  
Heating Degree Days 46    
Moisture  
Dew Point 17 °F    
Average Humidity 89    
Maximum Humidity 93    
Minimum Humidity 85    
Precipitation  
Precipitation 0.00 in - - ()
Sea Level Pressure  
Sea Level Pressure 30.03 in    
Wind  
Wind Speed 7 mph (WSW)    
Max Wind Speed 13 mph    
Max Gust Speed 17 mph    
Visibility 3 miles    
Events Snow    
Averages and records for this station are not official NWS values.
T = Trace of Precipitation, MM = Missing Value Source: NWS Daily Summary

Daily Weather History Graph

Daily Weather History Graph

Search for Another Location

Airport or City:

Trip Planner

Search our weather history database for the weather conditions in past years. The results will help you decide how hot, cold, wet, or windy it might be!

Date:

Astronomy

Feb. 02, 2013 Rise Set
Actual Time 6:57 AM CST 5:04 PM CST
Civil Twilight 6:28 AM CST 5:33 PM CST
Nautical Twilight 5:55 AM CST 6:06 PM CST
Astronomical Twilight 5:22 AM CST 6:39 PM CST
Moon No Moon Rise 10:01 AM CST (2/2)
Length of Visible Light 11h 05m
Length of Day
10h 06m
Waning Gibbous, 59% of the Moon is Illuminated
Feb 2
Waning Gibbous
Feb 3
Last Quarter
Feb 10
New
Feb 17
First Quarter
Feb 25
Full

Hourly Weather History & Observations

Time (CST) Temp. Windchill Dew Point Humidity Pressure Visibility Wind Dir Wind Speed Gust Speed Precip Events Conditions
12:15 AM 14.9 °F 7.5 °F 12.0 °F 88% 30.19 in 1.5 mi SW 4.6 mph - N/A Snow Light Snow
12:35 AM 15.1 °F 7.7 °F 12.4 °F 89% 30.18 in 1.5 mi SW 4.6 mph - N/A Snow Light Snow
12:55 AM 15.6 °F 7.0 °F 13.1 °F 90% 30.18 in 1.2 mi SW 5.8 mph - N/A Snow Snow
1:15 AM 15.8 °F 7.2 °F 13.5 °F 90% 30.17 in 1.2 mi SW 5.8 mph - N/A Snow Light Snow
1:35 AM 16.2 °F 7.6 °F 13.6 °F 90% 30.16 in 1.5 mi SSW 5.8 mph - N/A Snow Light Snow
1:55 AM 16.2 °F 7.6 °F 13.8 °F 90% 30.15 in 2.5 mi SSW 5.8 mph - N/A Snow Light Snow
2:15 AM 16.5 °F 8.1 °F 14.0 °F 90% 30.14 in 2.0 mi South 5.8 mph - N/A Snow Light Snow
2:35 AM 16.7 °F 7.2 °F 14.2 °F 90% 30.13 in 4.0 mi South 6.9 mph - N/A Snow Light Snow
3:15 AM 17.2 °F 6.0 °F 14.9 °F 91% 30.10 in 5.0 mi SSW 9.2 mph - N/A Snow Light Snow
3:35 AM 17.4 °F 6.2 °F 14.9 °F 90% 30.08 in 4.0 mi SSW 9.2 mph 16.1 mph N/A Snow Light Snow
3:55 AM 17.6 °F 5.0 °F 14.9 °F 89% 30.07 in 7.0 mi SSW 11.5 mph 16.1 mph N/A Snow Light Snow
4:15 AM 18.0 °F 6.9 °F 14.9 °F 88% 30.07 in 7.0 mi SSW 9.2 mph - N/A   Overcast
4:35 AM 18.1 °F 6.3 °F 15.3 °F 88% 30.06 in 2.0 mi SSW 10.4 mph - N/A Snow Light Snow
4:55 AM 18.3 °F 6.6 °F 15.6 °F 89% 30.06 in 7.0 mi SSW 10.4 mph 16.1 mph N/A Snow Light Snow
5:15 AM 18.5 °F 7.5 °F 15.8 °F 89% 30.05 in 10.0 mi SSW 9.2 mph - N/A Snow Light Snow
5:35 AM 18.5 °F 6.8 °F 15.8 °F 89% 30.04 in 4.0 mi SSW 10.4 mph - N/A Snow Light Snow
6:15 AM 18.5 °F 8.4 °F 16.5 °F 92% 30.03 in 1.2 mi SSW 8.1 mph - N/A Snow Light Snow
6:35 AM 18.9 °F 8.0 °F 16.7 °F 91% 30.03 in 1.0 mi SW 9.2 mph - N/A Snow Snow
6:55 AM 18.9 °F 8.8 °F 16.7 °F 91% 30.03 in 1.2 mi SSW 8.1 mph - N/A Snow Light Snow
7:15 AM 18.9 °F 8.8 °F 16.7 °F 91% 30.03 in 2.0 mi SW 8.1 mph - N/A Snow Light Snow
7:35 AM 19.0 °F 10.0 °F 17.1 °F 92% 30.03 in 3.0 mi SW 6.9 mph - N/A Snow Light Snow
7:55 AM 19.4 °F 9.5 °F 17.6 °F 93% 30.02 in 5.0 mi SW 8.1 mph - N/A Snow Light Snow
8:15 AM 20.3 °F 10.6 °F 18.1 °F 91% 30.02 in 10.0 mi SW 8.1 mph - N/A Snow Light Snow
8:35 AM 20.3 °F 9.8 °F 18.1 °F 91% 30.02 in 5.0 mi SW 9.2 mph - N/A Snow Light Snow
8:55 AM 20.8 °F 11.2 °F 18.5 °F 91% 30.01 in 5.0 mi SW 8.1 mph - N/A Snow Light Snow
9:15 AM 21.2 °F 10.9 °F 18.5 °F 89% 30.00 in 3.0 mi SW 9.2 mph - N/A Snow Light Snow
9:35 AM 21.6 °F 12.1 °F 19.0 °F 90% 30.00 in 2.0 mi SW 8.1 mph - N/A Snow Light Snow
9:55 AM 22.1 °F 13.7 °F 19.4 °F 89% 29.99 in 1.8 mi WSW 6.9 mph - N/A Snow Light Snow
10:15 AM 22.3 °F 13.0 °F 19.4 °F 89% 30.00 in 1.8 mi WSW 8.1 mph - N/A Snow Light Snow
10:35 AM 22.6 °F 15.3 °F 19.9 °F 89% 30.00 in 3.0 mi West 5.8 mph - N/A Snow Light Snow
11:15 AM 23.4 °F 16.2 °F 20.8 °F 90% 29.98 in 3.0 mi West 5.8 mph - N/A Snow Light Snow
11:35 AM 23.5 °F 13.7 °F 20.7 °F 89% 29.98 in 3.0 mi West 9.2 mph - N/A Snow Light Snow
11:55 AM 23.9 °F 14.2 °F 21.0 °F 89% 29.97 in 2.5 mi West 9.2 mph - N/A Snow Light Snow
12:15 PM 23.9 °F 15.0 °F 20.8 °F 88% 29.96 in 5.0 mi West 8.1 mph - N/A   Overcast
12:35 PM 23.9 °F 16.8 °F 21.0 °F 89% 29.96 in 4.0 mi WNW 5.8 mph - N/A Snow Light Snow
12:55 PM 24.1 °F 17.0 °F 21.0 °F 88% 29.96 in 2.0 mi NW 5.8 mph - N/A Snow Light Snow
1:15 PM 23.7 °F 12.1 °F 21.0 °F 89% 29.96 in 1.0 mi NNW 12.7 mph 17.3 mph N/A Snow Light Snow
1:35 PM 23.5 °F 12.4 °F 20.3 °F 87% 29.96 in 1.2 mi NNW 11.5 mph - N/A Snow Light Snow
1:55 PM 23.2 °F 13.3 °F 19.4 °F 85% 29.96 in 2.0 mi NNW 9.2 mph 16.1 mph N/A Snow Light Snow
2:15 PM 22.8 °F 10.9 °F 19.2 °F 86% 29.97 in 1.5 mi NNW 12.7 mph - N/A Snow Light Snow
2:35 PM 22.8 °F 11.5 °F 19.2 °F 86% 29.97 in 1.2 mi NNW 11.5 mph - N/A Snow Light Snow
2:55 PM 22.3 °F 13.9 °F 18.7 °F 86% 29.98 in 1.0 mi NW 6.9 mph - N/A Snow Light Snow
3:15 PM 22.1 °F 12.8 °F 19.4 °F 89% 29.99 in 1.2 mi NNW 8.1 mph - N/A Snow Light Snow
3:35 PM 22.1 °F 12.8 °F 19.2 °F 89% 29.99 in 1.0 mi NW 8.1 mph - N/A Snow Light Snow
3:55 PM 21.7 °F 13.2 °F 18.9 °F 89% 30.00 in 1.2 mi NW 6.9 mph - N/A Snow Light Snow
4:15 PM 21.7 °F 14.3 °F 19.0 °F 89% 30.00 in 1.0 mi NW 5.8 mph - N/A Snow Light Snow
4:35 PM 21.6 °F 14.0 °F 19.2 °F 91% 30.00 in 1.0 mi NNW 5.8 mph - N/A Snow Light Snow
4:55 PM 21.2 °F 14.9 °F 19.0 °F 91% 30.00 in 1.8 mi WNW 4.6 mph - N/A Snow Light Snow
5:15 PM 21.0 °F 14.6 °F 18.5 °F 90% 30.01 in 2.5 mi WNW 4.6 mph - N/A Snow Light Snow
5:35 PM 21.0 °F 14.6 °F 18.5 °F 90% 30.01 in 2.0 mi West 4.6 mph - N/A Snow Light Snow
5:55 PM 20.8 °F 12.1 °F 18.5 °F 91% 30.01 in 1.5 mi West 6.9 mph - N/A Snow Light Snow
6:15 PM 20.8 °F 11.2 °F 18.5 °F 91% 30.01 in 5.0 mi West 8.1 mph - N/A Snow Light Snow
6:35 PM 19.6 °F 13.0 °F 17.4 °F 91% 30.02 in 1.0 mi East 4.6 mph - N/A Snow Light Snow
6:55 PM 18.7 °F 13.5 °F 16.5 °F 91% 30.03 in 1.8 mi ENE 3.5 mph - N/A Snow Light Snow
7:15 PM 18.3 °F 13.1 °F 16.0 °F 91% 30.03 in 3.0 mi NE 3.5 mph - N/A Snow Light Snow
7:35 PM 18.1 °F 12.9 °F 15.8 °F 91% 30.05 in 1.5 mi NNE 3.5 mph - N/A Snow Light Snow
7:55 PM 17.2 °F 10.2 °F 14.2 °F 88% 30.05 in 2.0 mi East 4.6 mph - N/A Snow Light Snow
8:15 PM 16.7 °F - 14.4 °F 91% 30.05 in 1.2 mi Calm Calm - N/A Snow Light Snow
8:35 PM 16.7 °F - 13.6 °F 88% 30.05 in 1.2 mi Calm Calm - N/A Snow Light Snow
8:55 PM 16.7 °F - 14.0 °F 89% 30.04 in 1.8 mi Calm Calm - N/A Snow Light Snow
9:15 PM 16.2 °F - 13.3 °F 88% 30.04 in 1.5 mi Calm Calm - N/A Snow Light Snow
9:35 PM 15.8 °F 10.2 °F 13.1 °F 89% 30.04 in 2.0 mi West 3.5 mph - N/A Snow Light Snow
9:55 PM 15.3 °F - 12.6 °F 89% 30.03 in 2.0 mi Calm Calm - N/A Snow Light Snow
10:15 PM 14.9 °F 9.2 °F 12.2 °F 89% 30.02 in 2.5 mi West 3.5 mph - N/A Snow Light Snow
10:35 PM 15.1 °F 9.4 °F 12.7 °F 90% 30.03 in 4.0 mi West 3.5 mph - N/A Snow Light Snow
10:55 PM 15.3 °F 9.6 °F 12.2 °F 88% 30.02 in 5.0 mi SW 3.5 mph - N/A Snow Light Snow
11:15 PM 14.9 °F 9.2 °F 12.2 °F 89% 30.02 in 4.0 mi WSW 3.5 mph - N/A Snow Light Snow
11:35 PM 14.9 °F 6.1 °F 11.8 °F 88% 30.00 in 5.0 mi SW 5.8 mph - N/A Snow Light Snow
11:55 PM 13.8 °F 6.2 °F 10.2 °F 86% 30.01 in 5.0 mi WSW 4.6 mph - N/A Snow Light Snow